Location: Unspecified
(34.4500°N, 0.0000°E)
Time: 22:20:24
(UTC+00:00)

Envisat - Pass Details

Date: 13 March 2021
Orbit: 764 x 766 km, 98.1° (Epoch: 12 April)

Event Time Altitude Azimuth Distance (km) Brightness Sun altitude
Rises 05:29:23 0° 13° (NNE) 3,235 6.5 -9.9°
Reaches altitude 10° 05:31:42 10° 15° (NNE) 2,305 5.7 -9.4°
Maximum altitude 05:36:47 78° 102° (ESE) 783 3.2 -8.3°
Drops below altitude 10° 05:41:50 10° 189° (S) 2,290 5.4 -7.3°
Sets 05:44:08 0° 191° (S) 3,212 6.1 -6.8°
